Tracking 18844 objects as of 21-Nov-2017
HD Live streaming from Space Station
objects crossing your sky now

FENGYUN 1C DEB

Track FENGYUN 1C DEB now!
10-day predictions


NORAD ID: 31188
Int'l Code: 1999-025BJS
Perigee: 814.9 km
Apogee: 915.1 km
Inclination: 99.0 °
Period: 102.1 minutes
Semi major axis: 7235 km
RCS: 0.0141 m2 (small)
Launch date: May 10, 1999
Source: People's Republic of China (PRC)
Launch site: Taiyaun Space Center, China (TSC)

Note: This is SATELLITE DEBRIS
aabbcc
Your satellite tracking list
Your tracking list is empty




NASA's NSSDC Master Catalog

Two Line Element Set (TLE):
1 31188U 99025BJS 17324.95701451 +.00000869 +00000-0 +50263-3 0  9997
2 31188 098.9701 016.5316 0069221 332.7161 150.7217 14.10452090547311
Source of the keplerian elements: AFSPC